Location: Aalsum
(53.3404°N, 6.0062°E)
Time: 09:41:51
(UTC+00:00)

Cosmos 2369 Rocket - Pass Details

Date: 28 January 2023
Orbit: 829 x 851 km, 71.0° (Epoch: 19 March)

Event Time Altitude Azimuth Distance (km) Brightness Sun altitude
Rises 19:58:50 0° 321° (NW) 3,386 6.1 -33.6°
Reaches altitude 10° 20:02:18 10° 342° (NNW) 2,448 4.9 -34.1°
Enters shadow 20:03:54 14° 358° (N) 2,167 4.5 -34.4°
